Location: Enborne
(51.3833°N, 1.3667°W)
Time: 22:30:14
(UTC+00:00)

Okean 2 Rocket - Pass Details

Date: 18 September 2020
Orbit: 616 x 642 km, 82.5° (Epoch: 31 October)

Event Time Altitude Azimuth Distance (km) Brightness Sun altitude
Rises 19:41:18 0° 185° (S) 2,934 6.4 -14.4°
Reaches altitude 10° 19:43:32 10° 184° (S) 2,027 5.5 -14.7°
Maximum altitude 19:48:02 78° 98° (E) 657 3.0 -15.4°
Drops below altitude 10° 19:52:32 10° 13° (NNE) 2,030 5.8 -16.0°
Sets 19:54:46 0° 12° (NNE) 2,939 6.7 -16.3°
